"Pseudo-MPEC" for P10OD4X

Created 2019 Jun 15 19:07:56 UT using Find_Orb

Click here for an explanation of pseudo-MPECs

 
 Astrometry: 
     P10OD4X  C2019 05 01t]Tq^Ne`kpC70=+'R\Hq$=FjM`0_?+vMVVf*AOl$fVAK7Mb_xbc;F51
     P10OD4X  C2019 05 01cTCI(B#XJY460pGVth2omIvU.urKj[Y3^x;'!M+5bu-LkT(@Bni6F51
     P10OD4X  C2019 05 01=fE%aqPQRdekZAstrometryLq.W,JR9PwHXqjLaZCMHhwR?*^OXsF51
     P10OD4X  C2019 05 01!*[X6_d*5;,m3PsN1!kdiBpb3!UENVOch@H,$]H0*5`WcKsp7a9-F51
     P10OD4X  C2019 05 12#stXO@,_Io(iq4GT6W8%roBwB`nY!-g%;]/[DI_9QN1?P?V-25Y'F51
     P10OD4X  C2019 05 12XWJK]t2$yl@6V!Z%`NVi9OsX_Du:LSKPKP3Eblx.25dgoC(wSq6)F51
     P10OD4X  C2019 05 12DIh$m=spiIv?7u[)tjo/.\X,dV_5lhYo1^cN\yF`u?QpU4Dy)--eF51
     P10OD4X  C2019 06 01f9PvS?Buy8,7U[m749Q/3(Yhp$gy1N?QBI'uhJJAWXqlLb?:iRvtF51
     P10OD4X  C2019 06 02G;Fljewf4%;W)exEvWph)XHLkU#n)JNEJtijrU$QJ[Z54Yfk)TN;F51
     P10OD4X  C2019 06 02WPBH_EpiIE4M?#=72vB\1VKE57redacted;jrF4WIVY.UPw$ue+:F51
     P10OD4X  C2019 06 02BI,TE(jV_VN-FG-e[d47DvltNJo9Uc6$Ij#,54k+j?86@FU!dCl.F51
     P10OD4X  C2019 06 02@^click(nbQarowvrBT$1hIXiTH/T$e?GW'Ap0i2;+*d\[]$5;iWF51
     P10OD4X KC2019 06 04e+i.:7qHo\g=nI83(PN3[mo*N+E=bdIQL=BDe8Z-/NVGliOwqXd2291
     P10OD4X  C2019 06 04.32475 16 59 02.11 +04 57 48.4    ~648b 21.1 GVNEOCPV06
     P10OD4X  C2019 06 04.32872 16 59 01.76 +04 57 46.1    ~648b 21.2 GVNEOCPV06
     P10OD4X  C2019 06 04.33269 16 59 01.40 +04 57 44.0    ~648b 21.2 GVNEOCPV06
     P10OD4X KC2019 06 04Nn:YnWu2Z_wH)c:=pIlLK8oT5fqGQ]uyw.m.]Zic?@fhere]?-*e291
     P10OD4X  C2019 06 04.33665 16 59 01.04 +04 57 41.9    ~648b 21.2 GVNEOCPV06
     P10OD4X KC2019 06 063UX(cGoZIFqDyH-GWj'TttXue^;y9M'WtP7CPcBP1OwhsforXB'X691
     P10OD4X KC2019 06 06=!4explanationO/:`$mTQO1%I0eE`QN7?HI)'Y+;ba$!]J/4ytn691
     P10OD4X KC2019 06 06Xwrh=(mFsgHB)QI\$CwZy4*.])qpZi8v`AD,:1T]n,`0BYh@0H?D691
     P10OD4X KC2019 06 08-MFD0=:j`SAGNeShPb%DH@.jSPdcR)a_1-*u%xfe+a2YL@V([P!b691
     P10OD4X KC2019 06 08t.8_qjBX*-@h)E@IdL0w+\q-lyil)D.#S$D9]NFWpOV7R@cbqnxh691
     P10OD4X KC2019 06 08VjAE6$iD(vxx!C7^K^oBgK3@Ev\=D[_K[yb_C`A?_@@\1X-IM)7R691
     P10OD4X  C2019 06 091x8mo7(.kTikpO40JSojt+VR9%ZBp29[d+)YB1h4?1%5:meFI/tUF51
     P10OD4X  C2019 06 09eMnE-j;?)Q*5Z=1k_E1q$eqPrJ`l%%?MJq@!q^jQ!!v;!-f%bQQ\F51
     P10OD4X  C2019 06 09Ifv;E!5L;DFoEqSi/jx$E`jKHudW%+St*//W5%!5t,(ib73`;YF_F51
     P10OD4X  C2019 06 10^nZ:38?rk9T#Yi(ZXV4^#OkgjJ3).\dHIVAA!ZCV7#E?7$vLBZ)IF51
     P10OD4X  C2019 06 100tjTDW^,9.XO]Yd[5!^5uOmq!i++loY\$X:d-MJvVa/@BEvZZK0MF51
     P10OD4X  C2019 06 10B1'p/QPEU._qLm5yqeVXtP!s[-QEZM1Q/':`1_osyfFUS=tcOnn*F51
     P10OD4X  C2019 06 10Bt@Oed-v;X/VCnK=GkqmFJ0@h:i\D10d`jPJxL?n^N%(wPyDBplBF51

Station data:
(291) LPL/Spacewatch II  (N31.961669 W111.599905)  US/Arizona.  Observers J.
   V. Scotti, R. S. McMillan. 1.8-m f/2.7 reflector + CCD.
(691) Steward Observatory, Kitt Peak - Spacewatch  (N31.962174 W111.600327)
   US/Arizona.  Observer J. V. Scotti. 0.9-m f/3 reflector + CCD.
(F51) Pan-STARRS 1, Haleakala  (N20.707235 W156.255910)  US/Hawaii.
   Observers N. Primak, A. Schultz, S. Watters, J. Thiel, T. Goggia. Measurer
   PS1 Science Consortium. 1.8-m Ritchey-Chrétien + CCD.
(V06) Catalina Sky Survey-Kuiper  (N32.416847 W110.732550)  US/Arizona.
   Observers T. A. Pruyne, B. M. Africano, E. J. Christensen, G. A. Farneth,
   D. C. Fuls, A. R. Gibbs, A. D. Grauer, H. Groeller, J. A. Johnson, R. A.
   Kowalski, S. M. Larson, G. J. Leonard, R. L. Seaman, F. C. Shelly. 1.55-m
   reflector + CCD.

Orbital elements:  P10OD4X
   Perihelion 2020 Mar 27.221827 +/- 0.0652 TT =  5:19:25 (JD 2458935.721827)
Epoch 2019 Jun 10.0 TT = JDT 2458644.5   Earth MOID: 0.7064   AutoNEOCP
M 241.92369412 +/- 0.032            (J2000 ecliptic)
n   0.40545142 +/- 2.49e-5          Peri.  275.55632 +/- 0.018
a   1.80791007 +/- 7.4e-5           Node   107.78970 +/- 0.0035
e   0.1351662 +/- 7.84e-5           Incl.   23.02661 +/- 0.0026
P   2.43/887.88d           H 19.7   G  0.15   U  5.6  
q 1.56354166 +/- 8.69e-5    Q 2.05227849 +/- 0.000221
From 31 observations 2019 May 1-June 10; mean residual 0".17
Residuals in arcseconds: 
190501 F51  .19+  .02-    190602 F51  .04-  .14-    190608 691  .66+  .06-    
190501 F51  .01+  .00     190604 291  .02-  .53+    190608 691  .01-  .28-    
190501 F51  .08-  .27+    190604 V06  .02-  .08+    190609 F51  .03+  .00     
190501 F51  .04+  .17-    190604 V06  .04+  .08-    190609 F51  .05-  .01+    
190512 F51  .16-  .24-    190604 V06  .06-  .04-    190609 F51  .01-  .02-    
190512 F51  .13-  .23+    190604 291  .22+  .24+    190610 F51  .07+  .04-    
190512 F51  .11+  .17-    190604 V06  .17-  .00     190610 F51  .05-  .03-    
190601 F51  .03+  .16-    190606 691  .22-  .08+    190610 F51  .09-  .24-    
190602 F51  .06+  .06-    190606 691  .14-  .05-    190610 F51  .05-  .13-    
190602 F51  .11+  .21-    190606 691  .28-  .34+    
190602 F51  .09+  .06+    190608 691  .11-  .03-    

Ephemerides (geocentric):
Date (UTC) HH   RA              Dec         delta   r     elong  mag " sig PA
---- -- -- --  -------------   -----------  ------ ------ -----  --- ---- ---
2019 06 15 19  16 42 33.542   +02 46 46.36  .98635 1.9384 151.0 22.0 .244 144
2019 06 15 20  16 42 30.043   +02 46 11.99  .98637 1.9384 151.0 22.0 .246 144
2019 06 15 21  16 42 26.546   +02 45 37.58  .98638 1.9383 151.0 22.0 .247 144
2019 06 15 22  16 42 23.051   +02 45 03.14  .98640 1.9382 151.0 22.0 .249 144
2019 06 15 23  16 42 19.557   +02 44 28.65  .98642 1.9382 150.9 22.0 .250 144
2019 06 16 00  16 42 16.064   +02 43 54.13  .98644 1.9381 150.9 22.0 .252 144
2019 06 16 01  16 42 12.573   +02 43 19.57  .98646 1.9381 150.9 22.0 .253 143
2019 06 16 02  16 42 09.083   +02 42 44.97  .98648 1.9380 150.9 22.0 .254 143
2019 06 16 03  16 42 05.595   +02 42 10.34  .98649 1.9380 150.9 22.0 .256 143
2019 06 16 04  16 42 02.108   +02 41 35.66  .98651 1.9379 150.9 22.0 .257 143
2019 06 16 05  16 41 58.623   +02 41 00.95  .98653 1.9378 150.8 22.0 .259 143
2019 06 16 06  16 41 55.139   +02 40 26.20  .98656 1.9378 150.8 22.0 .260 143
2019 06 16 07  16 41 51.657   +02 39 51.41  .98658 1.9377 150.8 22.0 .262 143
2019 06 16 08  16 41 48.176   +02 39 16.59  .98660 1.9377 150.8 22.0 .263 143
2019 06 16 09  16 41 44.697   +02 38 41.72  .98662 1.9376 150.8 22.0 .264 143
2019 06 16 10  16 41 41.219   +02 38 06.82  .98664 1.9376 150.7 22.0 .266 143
2019 06 16 11  16 41 37.742   +02 37 31.88  .98667 1.9375 150.7 22.0 .267 143
2019 06 16 12  16 41 34.267   +02 36 56.91  .98669 1.9374 150.7 22.0 .269 143
2019 06 16 13  16 41 30.794   +02 36 21.89  .98671 1.9374 150.7 22.0 .270 142
2019 06 16 14  16 41 27.322   +02 35 46.84  .98674 1.9373 150.7 22.0 .272 142
2019 06 16 15  16 41 23.852   +02 35 11.75  .98676 1.9373 150.6 22.0 .273 142
2019 06 16 16  16 41 20.384   +02 34 36.63  .98678 1.9372 150.6 22.0 .275 142
2019 06 16 17  16 41 16.917   +02 34 01.46  .98681 1.9372 150.6 22.0 .276 142
2019 06 16 18  16 41 13.451   +02 33 26.26  .98683 1.9371 150.6 22.0 .278 142
2019 06 16 19  16 41 09.987   +02 32 51.02  .98686 1.9370 150.6 22.0 .279 142
2019 06 16 20  16 41 06.525   +02 32 15.75  .98689 1.9370 150.6 22.0 .281 142
2019 06 16 21  16 41 03.064   +02 31 40.43  .98691 1.9369 150.5 22.0 .282 142
2019 06 16 22  16 40 59.605   +02 31 05.08  .98694 1.9369 150.5 22.0 .284 142
2019 06 16 23  16 40 56.147   +02 30 29.70  .98697 1.9368 150.5 22.0 .285 142
2019 06 17 00  16 40 52.691   +02 29 54.27  .98700 1.9368 150.5 22.0 .287 142
2019 06 17 01  16 40 49.237   +02 29 18.81  .98702 1.9367 150.5 22.0 .288 141
2019 06 17 02  16 40 45.784   +02 28 43.31  .98705 1.9366 150.4 22.0 .290 141
2019 06 17 03  16 40 42.333   +02 28 07.78  .98708 1.9366 150.4 22.0 .291 141
2019 06 17 04  16 40 38.884   +02 27 32.21  .98711 1.9365 150.4 22.0 .293 141
2019 06 17 05  16 40 35.436   +02 26 56.60  .98714 1.9365 150.4 22.0 .294 141
2019 06 17 06  16 40 31.990   +02 26 20.95  .98717 1.9364 150.4 22.0 .296 141
2019 06 17 07  16 40 28.545   +02 25 45.27  .98720 1.9364 150.3 22.0 .297 141
2019 06 17 08  16 40 25.103   +02 25 09.55  .98723 1.9363 150.3 22.0 .299 141
2019 06 17 09  16 40 21.661   +02 24 33.79  .98726 1.9362 150.3 22.0 .300 141
2019 06 17 10  16 40 18.222   +02 23 58.00  .98729 1.9362 150.3 22.0 .302 141
2019 06 17 11  16 40 14.784   +02 23 22.17  .98733 1.9361 150.3 22.0 .303 141
2019 06 17 12  16 40 11.348   +02 22 46.31  .98736 1.9361 150.2 22.0 .305 141
2019 06 17 13  16 40 07.914   +02 22 10.40  .98739 1.9360 150.2 22.0 .306 141
2019 06 17 14  16 40 04.481   +02 21 34.46  .98742 1.9360 150.2 22.0 .308 140
2019 06 17 15  16 40 01.050   +02 20 58.49  .98746 1.9359 150.2 22.0 .309 140
2019 06 17 16  16 39 57.621   +02 20 22.48  .98749 1.9358 150.1 22.0 .311 140
2019 06 17 17  16 39 54.194   +02 19 46.43  .98753 1.9358 150.1 22.0 .312 140
2019 06 17 18  16 39 50.768   +02 19 10.35  .98756 1.9357 150.1 22.0 .314 140